Zurück zum Katalog

FENGYUN 1C DEB

AktivSSO
NORAD 29891·DEBRIS·🇨🇳 China

Gestartet May 10, 1999 von Taiyuan Satellite Launch Center

Loading…

Nächste Überflüge (nächste 24 Stunden)

TLE

AktuellSource: Space-Track

Epoche: Sep 13, 2026, 23:49 UTC

1 29891U 99025GM  26256.99293192  .00000507  00000-0  36644-3 0  9997
2 29891  98.7394 251.7861 0055360 218.9549 203.8358 14.00253288  3384

Verfolge FENGYUN 1C DEB in Echtzeit mit AllMySat

Download on the App Store